| time (UTC) | temp F | wind direction | speed MPH | gust MPH | rain 1hr in | rain 24hr in | rain mn in | humidity % | barometer mb |
| 20260506073017 | 59 | 315 | 2.0 | 4.0 | 0.00 | 0.00 | 0.00 | 79 | 1009.6 |
| 20260506072017 | 60 | 338 | 3.0 | 5.0 | 0.00 | 0.00 | 0.00 | 78 | 1009.8 |
| 20260506071017 | 60 | 90 | 6.0 | 11.0 | 0.00 | 0.00 | 0.00 | 79 | 1009.7 |
| 20260506062017 | 61 | 0 | 2.0 | 3.0 | 0.00 | 0.00 | 0.00 | 79 | 1009.7 |
| 20260506061017 | 62 | 0 | 2.0 | 3.0 | 0.00 | 0.00 | 0.00 | 80 | 1009.7 |
| 20260506051037 | 63 | 23 | 2.0 | 5.0 | 0.00 | 0.00 | 0.00 | 81 | 1009.8 |
| 20260506050109 | 63 | 338 | 5.0 | 9.0 | 0.00 | 0.00 | 0.00 | 80 | 1009.5 |
| 20260506044717 | 63 | 0 | 3.0 | 5.0 | 0.00 | 0.00 | 0.00 | 80 | 1009.5 |
| 20260506043717 | 64 | 338 | 5.0 | 7.0 | 0.00 | 0.00 | 0.00 | 80 | 1009.7 |
| 20260506042717 | 64 | 338 | 5.0 | 10.0 | 0.00 | 0.00 | 0.00 | 80 | 1009.6 |
| 20260506041717 | 64 | 338 | 5.0 | 11.0 | 0.00 | 0.00 | 0.00 | 80 | 1009.4 |
| 20260506040717 | 64 | 338 | 7.0 | 10.0 | 0.00 | 0.00 | 0.00 | 79 | 1009.3 |
| 20260506035717 | 65 | 338 | 5.0 | 9.0 | 0.00 | 0.00 | 0.00 | 79 | 1008.9 |
| 20260506034717 | 66 | 315 | 4.0 | 11.0 | 0.00 | 0.00 | 0.00 | 79 | 1008.8 |
| 20260506033717 | 66 | 338 | 4.0 | 6.0 | 0.00 | 0.00 | 0.00 | 79 | 1008.6 |
| 20260506032717 | 67 | 0 | 2.0 | 4.0 | 0.00 | 0.00 | 0.00 | 79 | 1008.5 |
| 20260506031717 | 68 | 338 | 7.0 | 12.0 | 0.00 | 0.00 | 0.00 | 78 | 1008.3 |
| 20260506030717 | 68 | 338 | 6.0 | 10.0 | 0.00 | 0.00 | 0.00 | 78 | 1008.1 |
| 20260506025716 | 69 | 338 | 3.0 | 7.0 | 0.00 | 0.00 | 0.00 | 78 | 1008.0 |
| 20260506024716 | 69 | 338 | 6.0 | 9.0 | 0.00 | 0.00 | 0.00 | 77 | 1008.0 |
| 20260506023737 | 70 | 0 | 7.0 | 9.0 | 0.00 | 0.00 | 0.00 | 77 | 1007.7 |
| 20260506022717 | 70 | 338 | 6.0 | 10.0 | 0.00 | 0.00 | 0.00 | 77 | 1007.3 |
| 20260506021718 | 70 | 338 | 3.0 | 5.0 | 0.00 | 0.00 | 0.00 | 76 | 1007.0 |
| 20260506020716 | 70 | 315 | 4.0 | 6.0 | 0.00 | 0.00 | 0.00 | 75 | 1006.9 |
| 20260506015737 | 71 | 315 | 4.0 | 8.0 | 0.00 | 0.00 | 0.00 | 75 | 1006.4 |
| 20260506014716 | 71 | 338 | 3.0 | 5.0 | 0.00 | 0.00 | 0.00 | 74 | 1006.2 |
| 20260506013717 | 71 | 315 | 5.0 | 8.0 | 0.00 | 0.00 | 0.00 | 74 | 1006.2 |
| 20260506012717 | 71 | 0 | 4.0 | 6.0 | 0.00 | 0.00 | 0.00 | 74 | 1005.7 |
| 20260506011717 | 72 | 315 | 6.0 | 8.0 | 0.00 | 0.00 | 0.00 | 74 | 1006.0 |
| 20260506010738 | 73 | 338 | 8.0 | 13.0 | 0.00 | 0.00 | 0.00 | 73 | 1006.0 |
| 20260506005716 | 73 | 23 | 2.0 | 6.0 | 0.00 | 0.00 | 0.00 | 73 | 1005.9 |
| 20260506004717 | 74 | 338 | 2.0 | 7.0 | 0.00 | 0.00 | 0.00 | 73 | 1005.7 |
| 20260506003757 | 75 | 338 | 3.0 | 6.0 | 0.00 | 0.00 | 0.00 | 70 | 1005.1 |
| 20260506002716 | 75 | 338 | 7.0 | 9.0 | 0.00 | 0.00 | 0.00 | 68 | 1005.0 |
| 20260506001717 | 76 | 338 | 3.0 | 7.0 | 0.00 | 0.00 | 0.00 | 69 | 1004.8 |
| 20260506000717 | 77 | 338 | 4.0 | 8.0 | 0.00 | 0.00 | 0.00 | 68 | 1004.9 |
| 20260505235758 | 79 | 338 | 7.0 | 9.0 | 0.00 | 0.00 | 0.00 | 67 | 1004.7 |
| 20260505234716 | 80 | 338 | 8.0 | 14.0 | 0.00 | 0.00 | 0.00 | 66 | 1004.5 |
| 20260505233716 | 81 | 338 | 8.0 | 13.0 | 0.00 | 0.00 | 0.00 | 65 | 1004.5 |
| 20260505232716 | 83 | 338 | 7.0 | 10.0 | 0.00 | 0.00 | 0.00 | 64 | 1004.5 |
| 20260505231737 | 84 | 315 | 3.0 | 6.0 | 0.00 | 0.00 | 0.00 | 63 | 1004.4 |
| 20260505230716 | 84 | 315 | 4.0 | 8.0 | 0.00 | 0.00 | 0.00 | 61 | 1004.1 |
| 20260505225717 | 85 | 338 | 7.0 | 14.0 | 0.00 | 0.00 | 0.00 | 60 | 1003.9 |
| 20260505224717 | 86 | 338 | 5.0 | 7.0 | 0.00 | 0.00 | 0.00 | 57 | 1003.7 |
| 20260505223717 | 87 | 338 | 3.0 | 7.0 | 0.00 | 0.00 | 0.00 | 55 | 1003.8 |
| 20260505222717 | 87 | 315 | 4.0 | 5.0 | 0.00 | 0.00 | 0.00 | 54 | 1003.6 |
| 20260505221717 | 88 | 315 | 6.0 | 8.0 | 0.00 | 0.00 | 0.00 | 52 | 1003.3 |
| 20260505220716 | 89 | 315 | 5.0 | 9.0 | 0.00 | 0.00 | 0.00 | 52 | 1003.2 |
| 20260505215716 | 91 | 0.0 | 1.0 | 0.00 | 0.00 | 0.00 | 52 | 1003.2 | |
| 20260505214716 | 92 | 315 | 2.0 | 5.0 | 0.00 | 0.00 | 0.00 | 52 | 1003.4 |
| 20260505213716 | 92 | 338 | 1.0 | 4.0 | 0.00 | 0.00 | 0.00 | 53 | 1003.4 |
| 20260505212736 | 93 | 135 | 2.0 | 5.0 | 0.00 | 0.00 | 0.00 | 53 | 1003.4 |
| 20260505211716 | 92 | 180 | 1.0 | 3.0 | 0.00 | 0.00 | 0.00 | 54 | 1003.6 |
| 20260505210737 | 92 | 180 | 1.0 | 3.0 | 0.00 | 0.00 | 0.00 | 55 | 1003.7 |
| 20260505205716 | 92 | 0.0 | 1.0 | 0.00 | 0.00 | 0.00 | 55 | 1003.8 | |
| 20260505204716 | 93 | 203 | 2.0 | 3.0 | 0.00 | 0.00 | 0.00 | 55 | 1003.8 |
| 20260505203716 | 92 | 158 | 1.0 | 2.0 | 0.00 | 0.00 | 0.00 | 56 | 1004.0 |
| 20260505202716 | 93 | 158 | 2.0 | 5.0 | 0.00 | 0.00 | 0.00 | 56 | 1004.3 |
| 20260505201716 | 92 | 180 | 4.0 | 6.0 | 0.00 | 0.00 | 0.00 | 57 | 1004.2 |
| 20260505200716 | 92 | 113 | 1.0 | 3.0 | 0.00 | 0.00 | 0.00 | 59 | 1004.3 |
| 20260505195716 | 91 | 203 | 3.0 | 10.0 | 0.00 | 0.00 | 0.00 | 59 | 1004.4 |
| 20260505194716 | 90 | 248 | 1.0 | 2.0 | 0.00 | 0.00 | 0.00 | 60 | 1004.5 |
| 20260505193717 | 90 | 158 | 3.0 | 5.0 | 0.00 | 0.00 | 0.00 | 61 | 1004.5 |
| 20260505192716 | 89 | 180 | 3.0 | 8.0 | 0.00 | 0.00 | 0.00 | 62 | 1004.5 |
| 20260505191756 | 88 | 248 | 4.0 | 11.0 | 0.00 | 0.00 | 0.00 | 63 | 1004.7 |
| 20260505190716 | 88 | 135 | 2.0 | 5.0 | 0.00 | 0.00 | 0.00 | 65 | 1004.4 |
| 20260505185716 | 87 | 180 | 3.0 | 4.0 | 0.00 | 0.00 | 0.00 | 64 | 1004.5 |
| 20260505184716 | 87 | 203 | 5.0 | 8.0 | 0.00 | 0.00 | 0.00 | 65 | 1004.5 |
| 20260505183716 | 86 | 248 | 2.0 | 5.0 | 0.00 | 0.00 | 0.00 | 67 | 1004.7 |
| 20260505182736 | 86 | 203 | 3.0 | 5.0 | 0.00 | 0.00 | 0.00 | 66 | 1004.8 |
| 20260505181757 | 86 | 180 | 4.0 | 8.0 | 0.00 | 0.00 | 0.00 | 67 | 1004.7 |
| 20260505180716 | 86 | 248 | 5.0 | 8.0 | 0.00 | 0.00 | 0.00 | 66 | 1004.9 |
| 20260505175716 | 86 | 180 | 4.0 | 7.0 | 0.00 | 0.00 | 0.00 | 66 | 1004.9 |
| 20260505174736 | 86 | 180 | 6.0 | 11.0 | 0.00 | 0.00 | 0.00 | 66 | 1004.8 |
| 20260505173716 | 85 | 225 | 3.0 | 6.0 | 0.00 | 0.00 | 0.00 | 69 | 1004.8 |
| 20260505172716 | 85 | 203 | 4.0 | 7.0 | 0.00 | 0.00 | 0.00 | 69 | 1004.9 |
| 20260505171716 | 84 | 158 | 4.0 | 8.0 | 0.00 | 0.00 | 0.00 | 69 | 1004.9 |
| 20260505170716 | 84 | 180 | 6.0 | 10.0 | 0.00 | 0.00 | 0.00 | 70 | 1005.0 |
| 20260505165716 | 83 | 180 | 4.0 | 8.0 | 0.00 | 0.00 | 0.00 | 72 | 1004.9 |
| 20260505164736 | 82 | 158 | 7.0 | 11.0 | 0.00 | 0.00 | 0.00 | 72 | 1004.9 |
| 20260505163716 | 82 | 225 | 7.0 | 11.0 | 0.00 | 0.00 | 0.00 | 73 | 1004.8 |
| 20260505162716 | 81 | 203 | 6.0 | 9.0 | 0.00 | 0.00 | 0.00 | 74 | 1004.8 |
| 20260505161736 | 81 | 225 | 8.0 | 15.0 | 0.00 | 0.00 | 0.00 | 74 | 1004.7 |
| 20260505160716 | 80 | 180 | 4.0 | 8.0 | 0.00 | 0.00 | 0.00 | 75 | 1004.7 |
| 20260505152716 | 78 | 203 | 8.0 | 14.0 | 0.00 | 0.00 | 0.00 | 79 | 1004.5 |
| 20260505151736 | 78 | 180 | 9.0 | 15.0 | 0.00 | 0.00 | 0.00 | 79 | 1004.6 |
| 20260505150716 | 77 | 180 | 4.0 | 10.0 | 0.00 | 0.00 | 0.00 | 80 | 1004.6 |
| 20260505124715 | 72 | 180 | 5.0 | 8.0 | 0.00 | 0.00 | 0.00 | 87 | 1003.9 |
| 20260505123715 | 72 | 180 | 6.0 | 9.0 | 0.00 | 0.00 | 0.00 | 87 | 1004.0 |
| 20260505122715 | 72 | 203 | 7.0 | 11.0 | 0.00 | 0.00 | 0.00 | 87 | 1003.9 |
| 20260505121735 | 72 | 203 | 5.0 | 8.0 | 0.00 | 0.00 | 0.00 | 87 | 1003.7 |
| 20260505120715 | 72 | 203 | 8.0 | 11.0 | 0.00 | 0.00 | 0.00 | 87 | 1003.6 |
| 20260505115716 | 72 | 203 | 7.0 | 13.0 | 0.00 | 0.00 | 0.00 | 87 | 1003.7 |
| 20260505114716 | 72 | 203 | 8.0 | 14.0 | 0.00 | 0.00 | 0.00 | 87 | 1003.6 |
| 20260505113735 | 72 | 158 | 7.0 | 10.0 | 0.00 | 0.00 | 0.00 | 87 | 1003.4 |
| 20260505112718 | 72 | 180 | 9.0 | 14.0 | 0.00 | 0.00 | 0.00 | 87 | 1003.4 |
| 20260505111717 | 72 | 180 | 6.0 | 9.0 | 0.00 | 0.00 | 0.00 | 86 | 1003.5 |
| 20260505110717 | 72 | 180 | 8.0 | 12.0 | 0.00 | 0.00 | 0.00 | 86 | 1003.5 |
| 20260505101717 | 72 | 225 | 4.0 | 7.0 | 0.00 | 0.00 | 0.00 | 86 | 1003.6 |
| 20260505100717 | 72 | 180 | 7.0 | 9.0 | 0.00 | 0.00 | 0.00 | 86 | 1003.8 |
| 20260505095737 | 72 | 158 | 2.0 | 5.0 | 0.00 | 0.00 | 0.00 | 86 | 1003.9 |
| 20260505094717 | 72 | 180 | 5.0 | 8.0 | 0.00 | 0.00 | 0.00 | 86 | 1003.8 |
| 20260505093717 | 72 | 180 | 7.0 | 12.0 | 0.00 | 0.00 | 0.00 | 86 | 1003.8 |
| 20260505092718 | 72 | 203 | 8.0 | 14.0 | 0.00 | 0.00 | 0.00 | 85 | 1003.9 |
| 20260505091737 | 72 | 203 | 7.0 | 13.0 | 0.00 | 0.00 | 0.00 | 85 | 1004.0 |
| 20260505090717 | 72 | 180 | 9.0 | 14.0 | 0.00 | 0.00 | 0.00 | 85 | 1004.1 |
| 20260505085717 | 72 | 180 | 7.0 | 12.0 | 0.00 | 0.00 | 0.00 | 85 | 1004.1 |
| 20260505084717 | 72 | 180 | 8.0 | 13.0 | 0.00 | 0.00 | 0.00 | 85 | 1004.1 |
| 20260505083717 | 73 | 180 | 6.0 | 12.0 | 0.00 | 0.00 | 0.00 | 85 | 1004.2 |
| 20260505082717 | 73 | 158 | 4.0 | 13.0 | 0.00 | 0.00 | 0.00 | 84 | 1004.2 |
| 20260505081717 | 73 | 180 | 5.0 | 9.0 | 0.00 | 0.00 | 0.00 | 84 | 1004.2 |
| 20260505080717 | 73 | 158 | 8.0 | 13.0 | 0.00 | 0.00 | 0.00 | 84 | 1004.1 |